Location: Jordan Lake
(35.7395°N, 79.0242°W)
Time: 17:29:08
(UTC-05:00)

LightSail 2 - Pass Details

Date: 12 December 2019
Orbit: 704 x 719 km, 24.0° (Epoch: 23 January)

Event Time Altitude Azimuth Distance (km) Brightness Sun altitude
Rises 17:29:06 0° 250° (WSW) 3,105 11.2 -5.6°
Reaches altitude 10° 17:33:03 10° 220° (SW) 2,180 8.9 -6.3°
Maximum altitude 17:35:04 12° 197° (SSW) 2,025 8.1 -6.7°
Drops below altitude 10° 17:37:05 10° 174° (S) 2,173 7.9 -7.1°
Sets 17:41:01 0° 144° (SE) 3,085 8.3 -7.8°
